Wind_Speed
50 51 50 49 49 46 46 46 45 44 42 43 47 47 47 43 44 44 44 44 43 45 50 43 44 49 49 48 49 56 58 48 34 29 30 26 25 26 29 34 37 40 52 58 58 66 74 78 81 86 91 92 95 96
57 56 53 46 43 42 41 41 39 41 39 36 34 33 34 35 35 38 41 41 43 49 52 46 46 48 45 49 51 57 59 44 34 30 25 20 21 22 23 28 31 34 43 47 55 59 68 76 82 84 88 92 97 96
52 45 44 43 44 43 40 39 39 36 37 38 41 39 36 35 38 39 39 39 45 51 48 46 44 39 43 47 52 56 59 40 33 25 20 20 20 18 18 22 35 38 44 48 41 49 59 72 78 83 89 90 92 90
53 50 49 47 46 45 40 41 40 37 39 36 36 36 33 35 38 39 39 39 35 35 39 42 33 42 44 46 52 55 50 37 29 23 22 20 18 15 16 18 20 30 44 45 38 42 51 65 77 83 89 89 89 91
53 50 53 50 51 50 48 42 40 36 34 33 34 35 31 34 35 34 35 36 33 30 30 28 37 42 38 46 48 56 44 34 26 22 19 15 13 11 11 15 15 22 31 34 36 42 49 49 60 75 83 88 88 88
53 50 50 51 54 51 46 42 38 37 37 33 34 36 37 35 34 33 32 33 31 28 31 28 35 34 41 48 48 54 40 29 18 14 10 7 5 5 5 3 4 9 15 21 28 32 39 48 56 58 65 81 91 90
52 50 46 46 46 47 46 44 42 39 38 37 36 39 40 38 33 31 33 34 30 26 27 28 29 41 45 44 49 50 34 22 9 9 13 14 16 17 16 15 12 9 5 4 11 18 24 31 41 50 54 62 76 85
52 50 48 41 41 42 41 41 38 37 37 36 36 33 34 35 34 31 34 32 30 27 26 27 33 40 39 44 48 45 29 17 6 9 13 13 16 17 18 20 21 18 15 12 8 6 6 11 20 29 38 47 57 65
52 49 47 47 46 44 43 40 38 39 38 36 40 40 37 38 33 35 34 31 29 26 28 25 36 41 39 44 46 39 26 15 6 8 10 10 12 14 16 18 21 22 18 17 14 11 11 9 8 12 19 28 40 51
53 49 49 48 47 43 43 41 42 41 41 41 41 42 38 41 41 36 33 30 30 29 26 28 36 35 38 43 43 33 23 13 6 6 6 7 11 12 15 16 16 19 21 17 20 20 17 14 12 10 11 14 22 31
51 50 48 47 44 44 42 40 43 43 42 43 42 43 40 38 40 37 34 34 31 30 26 36 36 35 40 41 38 29 22 15 8 6 5 4 11 12 15 15 15 15 18 19 21 22 22 22 20 15 12 12 15 18
46 47 46 47 45 42 46 46 45 44 46 47 47 46 45 44 43 40 39 39 36 32 25 32 31 36 40 36 35 26 22 16 11 7 6 10 9 14 17 13 14 17 15 17 20 22 23 23 25 26 23 20 18 16
47 46 46 41 42 46 44 45 45 47 49 50 49 45 44 46 46 45 45 46 38 34 26 28 31 38 35 35 31 23 22 18 16 11 11 13 14 16 21 13 14 15 17 19 20 23 24 23 26 26 25 24 24 20
35 33 31 35 38 43 44 47 49 49 51 52 52 53 50 48 50 49 44 40 37 31 25 29 31 36 31 32 27 21 21 20 16 10 12 15 18 18 12 12 15 16 19 21 20 23 25 26 25 26 27 26 27 29
38 41 43 41 43 46 49 49 52 52 51 51 54 56 59 58 57 53 48 41 37 31 27 28 34 31 31 29 24 19 16 18 14 8 11 15 16 10 11 13 15 17 20 22 24 25 25 25 25 26 27 29 30 31
33 36 39 43 46 49 49 45 46 47 53 56 58 58 53 48 48 55 54 50 39 30 28 33 31 28 26 29 23 16 14 14 6 6 12 17 15 11 15 14 15 17 19 24 24 26 26 28 27 27 31 33 36 34
38 39 40 42 44 45 44 45 47 51 54 50 39 32 30 31 36 41 42 42 37 32 32 30 27 27 26 24 21 17 15 12 8 13 15 17 20 20 22 20 18 21 23 24 27 27 26 28 31 33 37 39 40 39
47 44 44 45 49 47 46 47 52 48 36 27 22 22 27 32 33 33 33 30 29 30 24 25 24 24 25 23 20 16 14 17 11 12 13 15 21 24 23 21 20 21 24 26 29 33 34 32 33 36 38 38 39 39
48 49 47 47 49 50 49 44 34 23 20 24 29 30 29 30 27 22 21 23 24 18 22 24 23 23 25 21 20 21 18 18 11 10 13 16 20 27 30 26 25 27 26 27 30 35 38 39 36 38 39 37 37 39
52 53 52 50 45 36 29 26 23 27 34 35 34 33 31 27 25 22 21 19 14 18 22 25 24 23 17 22 20 20 20 19 17 16 19 21 25 32 33 25 25 27 31 34 35 38 41 44 46 43 41 45 46 49
37 32 28 26 24 25 27 26 36 39 36 35 33 32 30 24 19 17 15 14 19 23 21 32 25 20 17 20 20 20 18 20 18 17 16 19 28 35 40 34 29 30 34 38 42 47 52 52 54 52 52 51 52 54
24 23 23 24 26 32 37 34 32 34 35 34 31 29 25 20 17 17 14 19 23 25 31 31 26 19 18 21 19 20 24 23 22 29 18 25 35 37 35 34 36 36 37 43 51 57 60 61 57 55 57 60 60 60
28 29 30 34 37 39 35 33 33 33 33 32 28 24 17 16 18 18 20 20 23 28 30 27 23 26 21 21 20 19 23 21 17 20 27 33 37 37 36 39 43 42 45 50 58 62 60 58 58 65 67 65 64 64
33 37 41 36 32 31 31 32 31 31 30 29 26 20 19 19 19 20 23 27 26 25 24 26 23 25 22 23 24 25 24 24 26 28 31 32 32 38 44 49 46 49 56 61 59 60 60 61 63 65 67 67 67 69
40 33 32 33 29 25 22 22 22 23 22 20 20 20 19 19 20 22 22 20 21 21 18 24 23 26 24 21 23 25 26 27 28 29 30 30 33 39 41 46 51 56 60 63 63 63 64 63 64 67 71 74 75 75
35 30 27 25 25 23 21 20 19 19 19 18 19 20 19 19 19 17 12 8 6 10 12 16 23 32 31 25 26 25 26 29 32 32 35 37 41 45 48 51 54 58 62 67 70 70 68 69 72 75 79 80 81 79
29 28 25 22 20 19 17 16 15 16 16 15 16 16 16 17 18 19 25 25 18 14 18 16 20 25 31 28 28 28 24 30 35 37 39 43 49 52 54 56 60 65 68 69 69 71 71 70 66 65 65 64 61 61
24 22 20 18 17 18 17 15 15 14 13 14 14 15 15 15 18 23 31 31 30 28 25 25 19 20 27 31 33 35 38 37 36 39 44 50 55 57 61 65 67 68 69 69 64 60 58 57 56 55 55 52 51 50
18 18 18 18 17 16 13 13 12 13 12 10 7 6 9 12 15 19 23 29 27 17 12 13 16 21 27 31 34 34 35 38 42 46 52 56 59 63 63 65 65 59 55 54 53 49 46 44 42 41 42 42 43 42
16 15 16 15 14 13 13 14 13 11 15 24 22 17 8 7 22 22 19 22 27 24 17 16 17 19 22 26 30 36 40 44 48 51 55 59 62 62 61 55 51 51 47 44 44 41 38 36 35 33 34 36 36 36
11 13 14 14 14 14 10 10 14 21 32 28 25 12 4 9 11 16 19 22 24 26 27 26 28 30 31 34 36 40 43 47 54 57 57 59 57 49 44 44 43 42 41 39 37 37 35 33 31 28 26 27 28 28
15 15 15 16 15 13 16 18 21 26 29 28 25 26 23 16 13 12 13 16 19 21 23 25 27 31 33 36 40 44 51 55 55 58 53 44 38 38 37 36 36 37 39 39 38 37 35 32 31 30 29 29 29 28
13 13 13 13 16 20 21 20 17 15 16 17 16 15 14 10 8 10 13 16 19 22 24 26 30 34 39 44 50 52 54 55 50 42 36 34 32 32 31 34 36 37 37 38 37 38 37 37 36 34 31 30 28 27
Wind_Direction
273 271 271 273 277 276 280 281 282 283 281 278 278 279 280 284 284 285 286 290 293 297 299 308 312 318 312 320 322 327 330 330 314 306 294 280 268 260 250 249 250 247 239 236 232 223 225 225 225 227 228 229 230 227
273 272 272 272 276 276 280 282 279 278 279 281 281 279 280 281 281 282 284 281 282 287 293 299 306 310 316 318 323 327 330 323 313 303 293 287 281 268 254 248 249 246 235 237 234 228 223 224 226 226 229 230 230 231
271 270 269 270 277 274 277 281 280 278 281 282 280 278 277 281 291 284 286 284 276 276 282 295 299 309 315 317 323 327 329 322 313 300 303 298 292 277 262 242 240 246 240 245 241 234 226 224 225 227 229 228 233 231
267 265 265 265 267 268 275 280 277 281 279 279 280 278 283 286 288 287 287 289 287 283 286 293 306 314 311 317 323 327 330 319 314 308 305 301 293 285 267 250 238 237 246 244 240 241 238 229 226 227 229 229 230 231
266 264 259 261 263 267 273 276 272 272 274 272 273 278 283 290 293 290 285 285 283 283 287 301 308 301 310 321 323 327 326 321 321 315 309 303 295 290 278 269 248 233 239 244 243 233 240 240 235 231 231 234 232 232
265 261 262 261 263 267 268 269 268 269 274 279 279 276 282 285 290 290 292 284 285 284 284 295 297 310 318 319 323 328 325 330 326 328 338 357 14 18 15 346 272 250 243 241 240 243 237 235 239 238 234 234 235 236
260 258 262 258 257 259 262 265 270 267 270 273 279 276 276 277 278 286 294 290 285 286 286 289 301 309 307 313 321 328 327 333 327 16 35 43 53 54 50 47 48 43 26 290 257 250 249 247 243 240 238 238 238 232
258 256 257 254 255 254 258 264 263 263 268 272 274 271 276 273 275 281 289 290 282 283 280 291 311 302 307 313 321 327 328 322 332 22 30 40 44 47 45 44 44 41 39 28 13 344 291 265 256 249 243 239 242 239
252 253 253 255 257 258 257 260 260 261 260 263 267 270 272 267 269 277 286 287 281 279 282 293 301 298 306 312 319 325 325 313 323 7 15 36 35 38 39 40 35 31 37 37 26 15 2 341 302 272 256 249 245 241
245 248 251 254 254 257 257 252 253 258 260 266 270 270 274 271 272 274 279 275 275 278 277 291 288 295 304 311 318 320 322 307 301 350 351 34 37 33 28 25 19 16 19 25 25 21 19 10 355 336 308 282 260 248
241 244 247 252 258 254 253 254 254 256 259 260 263 270 271 262 267 272 273 277 271 270 270 279 282 293 299 309 317 314 314 302 267 303 327 24 27 16 7 3 6 1 10 12 2 5 15 14 10 0 342 324 297 267
243 244 246 252 257 254 249 249 254 255 255 261 266 272 269 263 265 266 269 275 267 261 263 275 279 291 297 307 314 305 307 293 251 279 286 275 316 351 356 351 355 355 356 5 3 5 6 5 6 3 1 356 340 315
243 248 250 254 247 248 247 252 254 255 260 266 270 270 263 261 263 264 264 267 257 252 260 270 277 285 294 305 306 294 300 281 260 266 271 282 293 315 334 338 348 346 347 351 354 354 356 1 0 2 1 2 360 355
230 243 246 241 245 251 251 252 256 260 265 269 270 267 261 258 256 255 251 245 244 243 258 261 273 280 293 304 298 285 294 276 257 258 279 290 301 310 312 332 340 349 348 347 345 349 356 1 2 5 9 9 7 7
232 236 236 240 246 248 252 255 262 267 268 266 264 263 258 254 247 240 235 234 235 237 247 258 266 278 290 299 287 277 285 267 257 286 319 310 302 299 311 328 338 351 349 349 341 340 344 346 352 354 2 7 13 14
245 245 244 246 250 255 260 263 267 268 270 270 269 270 265 254 242 233 229 226 226 235 243 254 264 274 284 299 269 269 283 267 263 316 345 349 329 308 317 314 323 332 340 339 340 336 332 333 340 344 343 347 349 356
254 256 258 261 263 263 267 269 274 278 275 275 266 251 238 220 207 205 207 213 220 231 242 253 265 273 291 291 255 258 276 284 271 285 316 328 320 326 314 307 306 321 334 343 342 339 331 328 325 329 331 331 332 335
255 258 258 259 262 266 268 273 274 273 266 251 229 219 192 181 179 183 191 198 212 223 242 258 267 286 291 264 251 259 256 271 281 282 292 314 310 311 316 300 293 306 320 329 330 327 326 326 323 322 323 322 322 327
258 258 259 260 264 266 270 268 257 237 208 183 157 152 161 164 166 179 193 204 218 231 247 255 265 276 281 258 247 251 253 261 260 278 285 287 293 302 306 302 292 302 308 316 316 317 321 320 322 322 321 319 323 325
260 262 263 263 262 257 242 224 205 181 167 161 163 170 170 173 180 192 202 215 236 251 262 265 274 299 267 246 253 255 256 263 261 257 269 287 295 302 307 300 291 297 301 307 315 316 317 317 318 315 316 323 328 328
253 246 239 230 217 199 185 174 170 165 163 168 171 174 168 178 192 208 223 228 241 253 225 246 273 281 241 246 254 252 257 258 269 287 295 298 300 303 309 308 304 301 303 307 312 312 314 315 314 315 320 324 325 323
213 199 187 173 164 156 152 156 163 170 176 178 179 180 177 177 203 221 226 240 242 234 242 261 267 226 238 243 246 255 265 270 280 274 279 290 302 300 297 292 295 300 302 306 311 314 314 313 314 316 317 319 319 319
169 163 157 159 154 155 162 167 173 175 176 176 176 179 181 201 213 224 236 244 254 258 257 253 249 228 240 247 248 254 268 274 260 252 263 282 285 289 280 280 283 290 300 304 308 311 313 314 309 308 311 313 313 312
154 149 147 156 164 172 180 186 187 189 192 192 190 195 208 219 224 233 244 248 249 246 240 234 244 228 235 239 243 243 250 262 271 281 282 282 278 284 282 286 291 300 301 303 304 304 305 303 301 301 303 305 306 307
150 154 167 174 179 183 183 180 175 180 189 195 201 209 220 232 242 245 248 251 248 244 246 239 239 216 227 238 249 261 265 272 276 278 291 295 284 285 288 289 294 297 298 298 299 301 301 301 301 301 301 301 300 299
163 167 169 166 162 161 167 171 176 185 196 209 221 229 235 238 239 232 216 197 223 245 251 244 234 222 225 234 249 264 273 277 280 285 287 287 292 295 294 293 293 294 296 298 299 300 302 301 300 299 298 298 297 298
146 149 152 156 164 173 176 186 202 215 222 227 234 231 221 212 203 183 164 173 152 206 224 261 253 235 233 242 260 262 271 283 286 284 286 289 294 298 300 300 299 299 299 298 299 300 300 299 297 295 293 293 294 294
143 151 159 170 180 188 199 205 214 222 224 215 206 206 206 201 198 186 178 187 208 218 242 262 247 234 235 242 249 264 279 285 286 287 289 295 298 300 301 302 302 303 304 304 304 304 303 301 299 298 297 297 299 300
157 167 177 185 196 199 204 206 204 196 199 207 205 201 198 188 185 194 195 201 205 202 209 232 245 250 253 256 264 273 278 288 292 293 294 298 301 302 304 305 307 307 307 307 306 307 305 303 301 298 300 301 299 302
170 176 185 197 199 193 185 181 192 199 165 142 131 125 128 151 180 181 191 192 193 204 235 251 255 260 268 274 281 286 288 290 293 298 301 303 306 308 309 310 312 315 317 318 319 321 319 317 315 312 309 308 307 306
187 184 182 181 170 167 178 192 177 162 162 160 160 129 309 227 211 216 223 227 236 246 258 264 265 268 277 282 285 287 292 296 300 302 306 308 307 307 307 310 314 319 323 327 328 327 327 325 321 315 309 306 304 301
169 172 173 166 161 174 171 167 168 164 163 170 176 184 207 211 216 231 247 253 256 261 265 273 280 285 287 291 293 297 300 303 307 309 310 309 308 308 310 315 322 325 327 330 332 333 333 331 328 326 324 321 318 316
174 177 179 173 168 171 167 167 162 169 177 183 189 205 218 224 246 263 268 271 273 280 284 284 286 290 295 298 302 306 309 311 310 310 308 307 305 307 314 321 326 328 329 330 331 331 331 331 331 330 328 325 322 318
Height
10722 10724 10725 10726 10727 10727 10728 10728 10727 10726 10724 10723 10723 10722 10722 10721 10719 10718 10717 10715 10713 10709 10706 10704 10701 10697 10691 10687 10682 10672 10661 10652 10645 10641 10638 10637 10631 10630 10630 10630 10631 10635 10639 10642 10650 10661 10669 10677 10683 10690 10696 10705 10711 10727
10705 10707 10710 10711 10712 10713 10714 10714 10714 10713 10712 10712 10711 10710 10710 10709 10708 10706 10705 10703 10702 10700 10697 10695 10692 10689 10683 10677 10671 10661 10652 10643 10637 10632 10628 10625 10621 10618 10618 10619 10620 10620 10624 10627 10637 10643 10649 10654 10659 10669 10678 10685 10689 10709
10689 10691 10693 10696 10698 10699 10700 10701 10701 10700 10699 10699 10699 10699 10698 10698 10697 10695 10694 10692 10691 10690 10688 10685 10682 10680 10675 10669 10663 10654 10645 10635 10629 10623 10619 10615 10612 10608 10607 10609 10607 10610 10611 10614 10622 10624 10635 10641 10645 10647 10654 10663 10671 10689
10672 10676 10679 10681 10683 10684 10686 10687 10688 10688 10687 10687 10688 10688 10687 10687 10687 10685 10684 10682 10681 10680 10678 10676 10674 10671 10667 10661 10654 10646 10635 10628 10621 10615 10610 10607 10603 10600 10598 10598 10601 10601 10597 10601 10610 10615 10614 10623 10627 10630 10635 10644 10654 10664
10655 10659 10662 10665 10667 10668 10672 10674 10675 10675 10676 10677 10677 10677 10677 10676 10675 10674 10673 10671 10670 10670 10669 10667 10665 10662 10659 10654 10647 10638 10629 10621 10614 10609 10604 10600 10596 10594 10591 10590 10592 10592 10591 10592 10596 10604 10604 10609 10612 10619 10626 10628 10637 10644
10638 10641 10644 10648 10650 10653 10657 10660 10662 10663 10664 10665 10666 10666 10666 10666 10666 10664 10663 10661 10661 10660 10659 10658 10656 10654 10651 10646 10639 10631 10623 10616 10610 10605 10600 10596 10593 10590 10588 10587 10586 10585 10586 10587 10588 10591 10595 10598 10600 10604 10612 10615 10622 10628
10619 10624 10628 10632 10635 10639 10642 10645 10649 10650 10652 10653 10654 10654 10655 10655 10655 10655 10654 10653 10652 10652 10650 10649 10649 10645 10643 10639 10632 10625 10618 10612 10608 10605 10601 10597 10594 10591 10589 10586 10585 10584 10583 10582 10582 10583 10584 10584 10587 10590 10596 10600 10601 10619
10602 10607 10612 10616 10620 10624 10628 10631 10635 10637 10638 10640 10641 10643 10644 10644 10645 10645 10644 10645 10643 10643 10642 10640 10637 10638 10635 10631 10625 10619 10614 10610 10606 10604 10601 10599 10596 10594 10591 10588 10586 10585 10583 10581 10579 10578 10577 10576 10575 10577 10580 10583 10584 10595
10585 10591 10596 10600 10605 10609 10613 10618 10621 10623 10625 10628 10630 10631 10633 10633 10633 10634 10636 10636 10635 10634 10633 10632 10632 10630 10629 10624 10619 10615 10610 10607 10604 10603 10601 10600 10598 10595 10592 10590 10587 10586 10584 10582 10579 10576 10573 10572 10570 10569 10568 10569 10572 10577
10568 10574 10580 10585 10589 10594 10598 10602 10606 10609 10612 10613 10616 10618 10620 10621 10623 10625 10626 10627 10626 10625 10625 10625 10624 10622 10621 10618 10613 10609 10607 10604 10602 10601 10600 10599 10597 10595 10593 10590 10588 10586 10584 10581 10578 10575 10573 10570 10567 10565 10563 10561 10560 10562
10551 10558 10564 10569 10574 10578 10582 10587 10591 10595 10597 10599 10601 10605 10606 10609 10612 10614 10615 10616 10617 10617 10616 10618 10617 10615 10615 10611 10607 10603 10602 10601 10600 10599 10598 10597 10595 10594 10592 10589 10587 10585 10583 10580 10577 10574 10570 10568 10566 10563 10560 10557 10553 10552
10536 10543 10549 10554 10559 10563 10567 10572 10575 10579 10581 10583 10587 10590 10592 10595 10598 10602 10604 10605 10606 10606 10608 10610 10610 10608 10606 10604 10600 10598 10597 10596 10596 10595 10595 10594 10593 10591 10590 10587 10585 10583 10581 10578 10576 10573 10569 10565 10562 10558 10554 10551 10547 10544
10522 10528 10534 10539 10545 10549 10553 10556 10560 10562 10565 10567 10571 10573 10576 10581 10585 10588 10590 10592 10594 10596 10600 10601 10603 10602 10600 10598 10595 10594 10593 10592 10592 10592 10591 10591 10590 10588 10587 10584 10582 10580 10578 10576 10573 10571 10568 10563 10559 10555 10551 10546 10542 10538
10510 10515 10521 10526 10531 10535 10538 10542 10545 10547 10549 10551 10552 10555 10560 10566 10567 10569 10574 10579 10582 10587 10590 10592 10594 10594 10593 10591 10589 10588 10588 10587 10588 10588 10587 10586 10585 10585 10583 10581 10579 10577 10574 10572 10570 10567 10564 10560 10556 10551 10548 10543 10537 10532
10499 10505 10509 10514 10517 10520 10523 10527 10530 10531 10532 10532 10533 10536 10537 10543 10547 10553 10559 10566 10573 10577 10581 10584 10586 10586 10585 10584 10583 10584 10584 10584 10584 10584 10583 10581 10581 10581 10580 10578 10576 10574 10572 10569 10567 10563 10560 10557 10554 10549 10545 10541 10536 10529
10489 10494 10497 10501 10503 10506 10509 10512 10513 10514 10513 10513 10513 10511 10511 10514 10520 10530 10542 10553 10562 10568 10573 10575 10578 10579 10578 10579 10578 10580 10581 10581 10580 10579 10579 10578 10576 10576 10575 10573 10572 10570 10568 10565 10562 10559 10555 10552 10549 10545 10539 10536 10532 10527
10477 10482 10485 10488 10489 10491 10496 10497 10497 10495 10494 10491 10491 10492 10494 10499 10507 10519 10531 10545 10555 10562 10566 10569 10572 10571 10571 10571 10572 10574 10577 10579 10576 10573 10574 10574 10573 10570 10568 10567 10566 10565 10562 10559 10556 10553 10550 10546 10542 10539 10536 10529 10524 10521
10463 10467 10471 10474 10473 10477 10480 10483 10479 10479 10479 10479 10480 10485 10491 10499 10508 10519 10529 10539 10547 10553 10558 10562 10565 10564 10565 10565 10568 10570 10573 10572 10571 10569 10567 10567 10566 10564 10563 10561 10559 10556 10554 10552 10550 10546 10542 10539 10536 10530 10526 10522 10517 10511
10448 10451 10456 10458 10460 10461 10464 10465 10466 10468 10472 10477 10483 10490 10496 10504 10511 10519 10527 10535 10542 10549 10553 10557 10558 10558 10559 10561 10563 10561 10563 10562 10564 10560 10559 10559 10558 10556 10555 10553 10551 10550 10547 10544 10542 10538 10534 10530 10528 10523 10518 10514 10510 10504
10431 10435 10438 10441 10443 10447 10450 10454 10459 10465 10472 10479 10485 10492 10500 10506 10510 10517 10526 10532 10539 10544 10544 10546 10549 10553 10555 10554 10554 10555 10555 10555 10554 10555 10553 10550 10548 10548 10548 10546 10543 10542 10541 10537 10533 10530 10527 10521 10516 10515 10509 10500 10495 10489
10416 10419 10423 10428 10433 10439 10444 10452 10460 10468 10474 10480 10487 10494 10499 10507 10512 10518 10525 10532 10537 10538 10544 10541 10545 10548 10548 10548 10548 10548 10550 10549 10549 10548 10548 10547 10546 10541 10536 10536 10535 10533 10530 10526 10523 10519 10516 10512 10505 10501 10495 10490 10484 10478
10409 10413 10418 10424 10431 10437 10447 10455 10462 10469 10476 10481 10487 10493 10499 10505 10512 10519 10525 10528 10531 10534 10536 10536 10539 10542 10541 10543 10543 10544 10543 10542 10542 10540 10538 10538 10539 10536 10534 10530 10524 10521 10521 10518 10513 10507 10500 10494 10490 10484 10478 10473 10469 10463
10406 10413 10420 10428 10435 10443 10451 10458 10465 10470 10477 10483 10489 10494 10499 10505 10512 10518 10522 10525 10528 10528 10528 10529 10534 10536 10537 10537 10539 10539 10537 10534 10534 10535 10532 10533 10531 10529 10526 10521 10517 10513 10512 10508 10502 10495 10487 10479 10472 10466 10462 10458 10454 10449
10409 10417 10427 10434 10441 10447 10453 10460 10467 10473 10479 10483 10488 10492 10497 10502 10508 10513 10516 10517 10518 10519 10521 10524 10528 10532 10532 10531 10530 10529 10529 10529 10529 10528 10526 10524 10523 10518 10512 10507 10504 10502 10498 10495 10492 10486 10480 10473 10466 10457 10449 10444 10441 10434
10416 10424 10431 10437 10444 10451 10457 10463 10468 10474 10479 10483 10487 10492 10496 10499 10501 10503 10506 10509 10511 10512 10514 10516 10517 10519 10521 10523 10522 10522 10521 10521 10518 10516 10515 10514 10512 10508 10503 10499 10496 10493 10487 10481 10477 10473 10468 10459 10450 10442 10434 10427 10422 10420
10421 10429 10435 10441 10447 10453 10459 10464 10469 10473 10477 10481 10485 10487 10490 10493 10495 10498 10500 10502 10503 10506 10507 10506 10508 10511 10515 10517 10518 10516 10515 10512 10511 10510 10508 10505 10503 10502 10498 10493 10487 10481 10473 10465 10459 10453 10447 10439 10431 10423 10413 10405 10396 10392
10427 10433 10439 10445 10451 10455 10460 10465 10468 10472 10474 10477 10479 10481 10484 10488 10490 10492 10493 10492 10496 10493 10496 10498 10501 10504 10508 10510 10510 10509 10509 10507 10506 10503 10500 10498 10494 10488 10482 10477 10470 10464 10457 10448 10438 10429 10423 10412 10406 10399 10390 10382 10377 10370
10432 10437 10442 10448 10452 10456 10460 10463 10466 10468 10470 10471 10473 10475 10479 10483 10485 10488 10491 10491 10492 10493 10496 10497 10499 10501 10502 10503 10504 10502 10500 10498 10496 10493 10489 10484 10478 10473 10466 10460 10453 10442 10431 10420 10412 10405 10397 10390 10383 10376 10370 10365 10357 10352
10436 10441 10445 10448 10452 10456 10459 10461 10464 10466 10468 10470 10473 10473 10475 10478 10483 10486 10489 10491 10495 10496 10496 10497 10498 10499 10499 10499 10498 10496 10493 10489 10485 10482 10477 10471 10465 10459 10451 10440 10431 10424 10415 10406 10397 10389 10381 10374 10367 10362 10356 10351 10345 10340
10439 10443 10446 10448 10451 10455 10457 10459 10461 10463 10466 10468 10470 10473 10474 10477 10483 10485 10488 10491 10493 10494 10496 10496 10495 10494 10493 10492 10489 10485 10483 10480 10475 10470 10466 10458 10447 10438 10429 10421 10413 10407 10400 10390 10379 10373 10366 10359 10353 10348 10343 10337 10333 10329
10439 10442 10444 10448 10451 10454 10456 10458 10460 10463 10466 10468 10472 10479 10478 10480 10481 10484 10487 10488 10489 10489 10489 10488 10486 10487 10487 10485 10482 10477 10473 10468 10463 10456 10449 10441 10432 10424 10418 10412 10403 10395 10387 10381 10375 10367 10359 10353 10347 10343 10339 10333 10329 10324
10439 10443 10445 10449 10452 10453 10455 10458 10461 10464 10467 10470 10473 10477 10476 10478 10480 10482 10483 10483 10483 10483 10482 10481 10479 10476 10474 10472 10469 10464 10459 10452 10444 10437 10430 10424 10418 10412 10407 10401 10395 10387 10379 10371 10364 10358 10351 10346 10340 10334 10328 10322 10317 10312
10441 10444 10447 10450 10453 10455 10458 10460 10464 10469 10471 10472 10473 10474 10476 10478 10478 10478 10477 10477 10477 10476 10475 10473 10470 10467 10463 10459 10455 10449 10442 10436 10429 10422 10418 10414 10410 10405 10399 10393 10386 10380 10373 10365 10358 10351 10344 10338 10332 10327 10322 10316 10312 10308